STARLINK-36145, 66983

Orbit data source: Space-Track

STARLINK-36145, 66983 is a payload satellite owned by SpaceX/Seattle (US) in LEO that was launched on Mon, 08 Dec 2025 UTC via an FALCON 9 launch vehicle from the Air Force Eastern Test Range (AFETR). Payload-class satellites include a variety of spacecraft equipped with specific instruments for various scientific and technological missions. These include communications satellites like Starlink; space stations such as the ISS; scientific satellites like the Hubble; Earth observation satellites from companies like Planet Labs, Umbra, and HawkEye 360; GPS; miniature CubeSats for education and research; and military/defense satellites.

Loading next visibility...
Identifier
66983, 2025-288AA
Orbit
LEO
Country
Flag of USUS
Related business
Manufacturer
SpaceX/Seattle
Mission
Operational Commercial Communications
Bus & Motor
STARLINK V2MO, Unknown motor
Mass
575 kg wet, ~530 kg dry
Launch date (UTC)
2025-12-08 (5 months ago)
Launch vehicle
FALCON 9
Launch site
Air Force Eastern Test Range (AFETR)
Object type
Payload
Rocket body
Debris
Shape & HBR
Box + 2 Pan, 17.7 m
Radar Cross Section
36.964 m²

Expand to show TLE details & history
Last TLE update: 12 hours ago

TLE from 12 hours ago
0 STARLINK-36145
1 66983U 25288AA  26130.00841251  .00013693  00000-0  50650-3 0  9991
2 66983  43.0033  37.2971 0001407 267.1311  92.9380 15.27559390 24664
Epoch: 2026-05-10T00:12Z
TLE epoch observation values (Epoch: 2026-05-10T00:12:06.840Z)
Latitude
-0.00001°
Longitude
166.45093°
Altitude
482.936 km
Speed
7.626 km/s
True Right ascension
02h 29m 11s
True Declination
0° 00' 00"
Sunlit
Object was in daylight at epoch
Visualization orbit readout
Latitude
Unknown
Longitude
Unknown
Altitude
Unknown
Speed
Unknown
Apparent Right ascension
Unknown
Apparent Declination
Unknown
Sunlit
N/A
Visualization observer readout
Local Sidereal Time
20:36:19
Azimuth
Unknown
Elevation
Unknown
Doppler factor
Unknown
Orbital elements
Apogee altitude
486.021 km
Perigee altitude
484.09 km
Semi-major axis
6,863.192 km
Eccentricity
0.00014
Inclination
43.0033°
RAAN
37.2971°
Arg. of periapsis
267.1311°
True anomaly
92.9541°
Mean anomaly
92.938°
Eccentric anomaly
92.94605°
Mean motion
3.81728 °/min
Orbital period
94.31 mins
BSTAR
0.0005065
Loading maneuver chart data...
Computing Atmospheric mass density...
Loading historical data...
Loading historical data...
Loading historical data...
Loading historical data...
Loading historical data...
Loading historical data...
Loading historical data...

Documentation

Showing up to 5 results
|